Kokomo, IN

7:44 PM EDT on October 14, 2019 (GMT -0400)
Kokomo Municipal

Weather History for KOKK - September, 2019

Change the Weather History Date:

Friday, September 20, 2019

  Actual Average (KGUS) Record (KGUS)
Temperature  
Mean Temperature 74 °F -  
Max Temperature 87 °F 72 °F 92 °F (2018)
Min Temperature 60 °F 51 °F 44 °F (2003)
Cooling Degree Days 8    
Growing Degree Days 24 (Base 50)    
Moisture  
Dew Point 64 °F    
Average Humidity 78    
Maximum Humidity 100    
Minimum Humidity 44    
Precipitation  
Precipitation 0.00 in - - ()
Sea Level Pressure  
Sea Level Pressure 30.14 in    
Wind  
Wind Speed 2 mph (South)    
Max Wind Speed 6 mph    
Max Gust Speed -    
Visibility 10 miles    
Events      
Averages and records for this station are not official NWS values.
T = Trace of Precipitation, MM = Missing Value Source: NWS Daily Summary

Daily Weather History Graph

Daily Weather History Graph

Search for Another Location

Airport or City:

Astronomy

Sep. 20, 2019 Rise Set
Actual Time 6:29 AM CDT 6:45 PM CDT
Civil Twilight 6:02 AM CDT 7:12 PM CDT
Nautical Twilight 5:30 AM CDT 7:44 PM CDT
Astronomical Twilight 4:57 AM CDT 8:16 PM CDT
Moon 10:33 PM CDT (9/20) 12:35 PM CDT (9/20)
Length of Visible Light 13h 10m
Length of Day
12h 15m
Waning Gibbous, 65% of the Moon is Illuminated
Sep 20
Waning Gibbous
Sep 21
Last Quarter
Sep 28
New
Oct 5
First Quarter
Oct 13
Full

Hourly Weather History & Observations

Time (CDT) Temp. Heat Index Dew Point Humidity Pressure Visibility Wind Dir Wind Speed Gust Speed Precip Events Conditions
12:56 AM 63.0 °F - 60.1 °F 90% 30.09 in 10.0 mi Calm Calm - N/A   Clear
1:56 AM 60.1 °F - 59.0 °F 96% 30.10 in 10.0 mi Calm Calm - N/A   Clear
2:56 AM 60.1 °F - 59.0 °F 96% 30.11 in 10.0 mi East 3.5 mph - N/A   Clear
3:56 AM 62.1 °F - 61.0 °F 96% 30.12 in 10.0 mi Calm Calm - N/A   Partly Cloudy
4:56 AM 61.0 °F - 61.0 °F 100% 30.12 in 10.0 mi SE 3.5 mph - N/A   Clear
5:56 AM 61.0 °F - 60.1 °F 97% 30.14 in 8.0 mi SE 3.5 mph - N/A   Clear
6:56 AM 60.1 °F - 60.1 °F 100% 30.14 in 4.0 mi Calm Calm - N/A   Clear
7:56 AM 66.0 °F - 64.9 °F 96% 30.15 in 8.0 mi SE 3.5 mph - N/A   Clear
8:56 AM 73.0 °F - 66.9 °F 81% 30.17 in 10.0 mi South 4.6 mph - N/A   Clear
9:56 AM 80.1 °F 82.7 °F 68.0 °F 67% 30.16 in 10.0 mi Calm Calm - N/A   Clear
10:56 AM 82.9 °F 85.0 °F 66.0 °F 56% 30.17 in 10.0 mi West 5.8 mph - N/A   Clear
11:56 AM 84.0 °F 85.4 °F 64.0 °F 51% 30.15 in 9.0 mi Calm Calm - N/A   Clear
12:56 PM 87.1 °F 87.8 °F 63.0 °F 44% 30.14 in 10.0 mi Calm Calm - N/A   Clear
1:56 PM 86.0 °F 87.3 °F 64.0 °F 48% 30.14 in 10.0 mi Calm Calm - N/A   Partly Cloudy
2:56 PM 86.0 °F 87.6 °F 64.9 °F 49% 30.12 in 10.0 mi Calm Calm - N/A   Partly Cloudy
3:56 PM 86.0 °F 88.2 °F 66.0 °F 51% 30.11 in 10.0 mi SSW 4.6 mph - N/A   Overcast
4:56 PM 84.0 °F 86.5 °F 66.9 °F 56% 30.12 in 10.0 mi SSW 5.8 mph - N/A   Partly Cloudy
5:56 PM 82.0 °F 85.5 °F 69.1 °F 65% 30.12 in 10.0 mi WSW 3.5 mph - N/A   Scattered Clouds
6:56 PM 79.0 °F - 66.9 °F 66% 30.13 in 10.0 mi West 4.6 mph - N/A   Clear
7:56 PM 73.0 °F - 68.0 °F 84% 30.14 in 10.0 mi Calm Calm - N/A   Clear
8:56 PM 69.1 °F - 66.9 °F 93% 30.16 in 10.0 mi SSE 3.5 mph - N/A   Clear
9:56 PM 68.0 °F - 66.0 °F 93% 30.16 in 10.0 mi Calm Calm - N/A   Clear
10:56 PM 68.0 °F - 66.9 °F 96% 30.16 in 10.0 mi Calm Calm - N/A   Mostly Cloudy
11:56 PM 70.0 °F - 68.0 °F 93% 30.15 in 10.0 mi South 3.5 mph - N/A   Mostly Cloudy